{"data":{"norad_id":61601,"epoch":"2026-05-25T02:39:28.928736Z","epoch_age_seconds":68542,"freshness":"FRESH","line1":"1 61601U 24188H   26145.11075149  .00000005  00000+0 -19660-4 0  9994","line2":"2 61601  87.9144  10.4875 0002135  62.1120 298.0228 13.17650524 82844","mean_motion":13.17650524,"eccentricity":0.0002135,"inclination_deg":87.9144,"raan_deg":10.4875,"arg_perigee_deg":62.112,"mean_anomaly_deg":298.0228,"bstar":-1.966e-5,"rev_number":8284,"period_min":109.28542688456,"perigee_km":1192.0908326566,"apogee_km":1195.3240102245,"semimajor_km":7571.8444214405,"source":"CELESTRAK","updated_at":"2026-05-25T13:38:22.749409Z"}}